Location: Centerville
(32.8776°N, 96.6203°W)
Time: 00:41:05
(UTC+00:00)

ADEOS Rocket - Pass Details

Date: 17 June 2021
Orbit: 858 x 1307 km, 98.7° (Epoch: 01 August)

Event Time Altitude Azimuth Distance (km) Brightness Sun altitude
Exits shadow 08:35:04 22° 152° (SSE) 2,469 4.8 -26.0°
Maximum altitude 08:40:16 69° 74° (ENE) 1,295 3.7 -25.4°
Drops below altitude 10° 08:47:12 10° 353° (N) 3,025 6.2 -24.6°
Sets 08:49:40 0° 351° (N) 3,927 6.8 -24.3°
